[[{"header":{"parameterUnit":"m.s-1","parameterCategory":1,"la1":30.2991,"la2":30.254,"lo1":-89.0895,"lo2":-89.0444,"dy":0.0017,"dx":0.0017,"nx":28,"ny":28,"refTime":"2025-12-06T03:00:00:Z","depth":0,"parameterNumber":2,"parameterNumberName":"U-component_of_WINDS"},"data":[0,0,0,0,0,0,0,0,0,0,0,0,0,0,0,0,0,0,0,0,0,0,0,0,0,0,0,0,0,0,0,0,0,0,0,0,0,0,0,0,0,0,0,0,0,0,0,0,0,0,0,0,0,0,0,0,0,0,-2.3733,-2.3734,0,-2.3804,-2.3805,-2.3805,-2.3749,-2.3746,-2.3744,-2.3742,-2.3815,-2.3819,-2.3823,0,0,0,0,0,0,0,0,0,0,0,0,0,-2.355,-2.3554,-2.3733,-2.3734,-2.3735,-2.3804,-2.3805,-2.3806,-2.3749,-2.3746,-2.3743,-2.3741,-2.3813,-2.3818,-2.3823,0,0,0,0,0,0,0,0,0,0,0,0,0,-2.3626,-2.3555,-2.3733,-2.3715,-2.3714,-2.3803,-2.3805,-2.3806,-2.375,-2.3746,-2.3743,-2.3739,-2.3812,-2.3818,-2.3824,-2.3935,0,0,-2.3843,-2.3846,0,0,0,0,0,0,0,0,-2.3622,-2.3633,-2.3717,-2.3717,-2.3716,-2.3764,-2.3767,-2.3849,-2.3751,-2.3736,-2.3742,-2.3737,-2.3801,-2.3808,-2.3829,-2.3938,-2.3942,-2.3844,-2.3848,-2.385,-2.3852,0,0,0,0,0,0,0,-2.3617,-2.363,-2.3761,-2.3718,-2.3717,-2.3704,-2.371,-2.3782,-2.3788,-2.3737,-2.3733,-2.3742,-2.38,-2.3823,-2.383,-2.3943,-2.3844,-2.3849,-2.3853,-2.3856,-2.4147,-2.4151,0,0,0,0,0,0,-2.3613,-2.3626,-2.3759,-2.3763,-2.3659,-2.371,-2.3718,-2.3752,-2.3787,-2.3789,-2.3745,-2.374,-2.3814,-2.3823,-2.3833,-2.3965,-2.385,-2.3856,-2.386,-2.4143,-2.4148,-2.4152,0,0,0,0,0,0,-2.361,-2.3626,-2.3756,-2.3693,-2.3709,-2.3717,-2.3756,-2.3755,-2.3778,-2.3793,-2.3794,-2.3768,-2.3812,-2.3824,-2.391,-2.3967,-2.3859,-2.3865,-2.4138,-2.4144,-2.415,-2.4231,0,0,0,0,0,0,-2.3605,-2.3625,-2.3667,-2.3695,-2.3713,-2.3832,-2.376,-2.3759,-2.3789,-2.3782,-2.3815,-2.3817,-2.381,-2.3901,-2.3916,-2.3974,-2.387,-2.4133,-2.4141,-2.4148,-2.4223,-2.4239,-2.4253,0,0,0,0,0,-2.3598,-2.3687,-2.3669,-2.3686,-2.3765,-2.3836,-2.3846,-2.3836,-2.3794,-2.3837,-2.3846,-2.3816,-2.3958,-2.391,-2.3927,-2.3987,-2.413,-2.4139,-2.4147,-2.4217,-2.4236,-2.4252,0,0,0,0,0,0,-2.3666,-2.369,-2.3671,-2.3772,-2.3802,-2.3826,-2.388,-2.3857,-2.39,-2.3891,-2.3877,-2.3885,-2.3976,-2.399,-2.3936,-2.4096,-2.4037,-2.405,-2.4084,-2.4103,-2.4117,-2.4112,-2.3875,0,0,0,0,0,-2.3693,-2.3748,-2.3766,-2.3853,-2.3869,-2.3872,-2.3902,-2.3892,-2.3923,-2.3936,-2.3951,-2.3983,-2.4034,-2.4069,-2.4117,-2.4225,-2.4231,-2.4274,-2.4289,-2.4301,-2.4312,-2.437,-2.439,-2.4181,-2.4181,-2.4181,0,0,-2.3749,-2.3769,-2.3804,-2.3867,-2.3889,-2.3947,-2.3883,-2.3947,-2.3989,-2.3945,-2.4028,-2.404,-2.4074,-2.4172,-2.4216,-2.4186,-2.4371,-2.4312,-2.4321,-2.4327,-2.4382,-2.4401,-2.4419,-2.4187,-2.4186,-2.4185,0,0,-2.388,-2.39,-2.3975,-2.3999,-2.4033,-2.4034,-2.4052,-2.408,-2.4086,-2.4169,-2.4137,-2.4187,-2.4277,-2.4303,-2.4328,-2.4468,-2.4442,-2.4484,-2.4561,-2.4617,-2.4634,-2.4648,-2.4699,-2.4718,-2.4495,-2.4495,-2.4495,0,-2.3945,-2.403,-2.4016,-2.4082,-2.4111,-2.4073,-2.4149,-2.4173,-2.4222,-2.4243,-2.4209,-2.432,-2.4341,-2.4444,-2.4478,-2.4499,-2.4519,-2.4481,-2.4633,-2.4647,-2.466,-2.4709,-2.4728,-2.45,-2.45,-2.4499,-2.4499,0,-2.4109,-2.4168,-2.4224,-2.4272,-2.4307,-2.4378,-2.4375,-2.4412,-2.4399,-2.4403,-2.4488,-2.4511,-2.4563,-2.4587,-2.4574,-2.4688,-2.4669,-2.4634,-2.4575,-2.4686,-2.4731,-2.4749,-2.4507,-2.4506,-2.4504,-2.4503,0,0,-2.4286,-2.4325,-2.4346,-2.4367,-2.4402,-2.4448,-2.4517,-2.4568,-2.46,-2.4635,-2.4693,-2.4769,-2.4737,-2.4765,-2.4755,-2.4805,-2.4915,-2.4764,-2.4764,-2.4792,-2.5043,-2.507,-2.5091,-2.4897,-2.4901,-2.4903,-2.504,0,-2.4419,-2.4539,-2.4529,-2.4642,-2.4697,-2.4662,-2.4722,-2.475,-2.4756,-2.4804,-2.481,-2.4865,-2.4818,-2.4835,-2.4882,-2.4892,-2.4966,-2.4881,-2.4952,-2.4954,-2.4945,-2.5115,-2.5144,-2.5272,-2.5058,-2.5061,-2.5063,0,-2.4591,-2.4632,-2.4751,-2.4777,-2.48,-2.4854,-2.49,-2.4946,-2.4977,-2.4978,-2.5009,-2.4991,-2.506,-2.4998,-2.5094,-2.5037,-2.5065,-2.5074,-2.5078,-2.5085,-2.5016,-2.5128,-2.5312,-2.5332,-2.5091,-2.5088,-2.5086,0,-2.471,-2.4794,-2.4876,-2.4895,-2.4928,-2.4967,-2.4983,-2.501,-2.5041,-2.5081,-2.5102,-2.5149,-2.5176,-2.5213,-2.5208,-2.5163,-2.5306,-2.5243,-2.5309,-2.531,-2.5342,-2.534,-2.5535,-2.5358,-2.5358,-2.5358,-2.5357,0,-2.486,-2.4935,-2.493,-2.4981,-2.5063,-2.505,-2.5132,-2.5143,-2.5167,-2.522,-2.5191,-2.5241,-2.5231,-2.528,-2.5276,-2.5357,-2.5369,-2.5372,-2.537,-2.5375,-2.5375,-2.5394,-2.5385,-2.5363,-2.5362,-2.5361,-2.536,0,-2.5007,-2.5007,-2.5094,-2.5118,-2.5125,-2.5185,-2.5206,-2.5254,-2.5257,-2.5323,-2.5338,-2.5344,-2.5401,-2.5399,-2.5463,-2.5461,-2.556,-2.5547,-2.555,-2.5547,-2.5614,-2.5608,-2.5828,-2.5857,-2.5661,-2.5663,-2.5664,0,-2.5104,-2.5161,-2.519,-2.5223,-2.5241,-2.5295,-2.5326,-2.5315,-2.535,-2.5389,-2.5433,-2.5487,-2.553,-2.5622,-2.5632,-2.5682,-2.5671,-2.5744,-2.5678,-2.5681,-2.5673,-2.567,-2.5676,-2.5758,-2.576,-2.5762,-2.5763,0,-2.5276,-2.5273,-2.532,-2.5367,-2.5405,-2.5442,-2.5475,-2.5504,-2.5497,-2.5537,-2.5594,-2.5628,-2.5693,-2.5748,-2.5795,-2.5811,-2.5787,-2.5784,-2.5802,-2.5808,-2.5808,-2.581,-2.5586,-2.5779,-2.5778,-2.5776,-2.5776,-2.5775,-2.5402,-2.545,-2.5479,-2.5532,-2.5556,-2.5588,-2.5634,-2.5643,-2.5691,-2.5743,-2.5734,-2.5799,-2.5828,-2.5889,-2.5909,-2.596,-2.5934,-2.596,-2.5966,-2.5973,-2.5981,-2.5799,-2.5968,-2.5968,-2.5967,-2.5967,-2.5967,0,-2.5573,-2.559,-2.5639,-2.5686,-2.5728,-2.57,-2.5736,-2.5773,-2.583,-2.5859,-2.5902,-2.5969,-2.6021,-2.6035,-2.6085,-2.6123,-2.6113,-2.6137,-2.6135,-2.6139,-2.6001,-2.5981,-2.6144,-2.6144,-2.6144,-2.6144,-2.6144,-2.6144,-2.5668,-2.5749,-2.5749,-2.5841,-2.5857,-2.592,-2.5943,-2.5972,-2.5996,-2.6071,-2.6114,-2.6123,-2.6146,-2.6198,-2.6245,-2.6247,-2.6268,-2.6296,-2.6295,-2.6166,-2.6148,-2.6132,-2.6113,-2.63,-2.6301,-2.6428,-2.6429,-2.643]},{"header":{"parameterUnit":"m.s-1","parameterCategory":1,"la1":30.2991,"la2":30.254,"lo1":-89.0895,"lo2":-89.0444,"dy":0.0017,"dx":0.0017,"nx":28,"ny":28,"refTime":"2025-12-06T03:00:00:Z","depth":0,"parameterNumber":3,"parameterNumberName":"V-component_of_WINDS"},"data":[0,0,0,0,0,0,0,0,0,0,0,0,0,0,0,0,0,0,0,0,0,0,0,0,0,0,0,0,0,0,0,0,0,0,0,0,0,0,0,0,0,0,0,0,0,0,0,0,0,0,0,0,0,0,0,0,0,0,-3.7952,-3.7952,0,-3.7958,-3.7958,-3.7958,-3.7896,-3.7894,-3.7893,-3.7891,-3.7896,-3.7898,-3.79,0,0,0,0,0,0,0,0,0,0,0,0,0,-3.7887,-3.7888,-3.7952,-3.7952,-3.7952,-3.7958,-3.7958,-3.7958,-3.7896,-3.7894,-3.7892,-3.789,-3.7896,-3.7898,-3.79,0,0,0,0,0,0,0,0,0,0,0,0,0,-3.7906,-3.7889,-3.7952,-3.7922,-3.792,-3.7958,-3.7958,-3.7958,-3.7897,-3.7894,-3.7892,-3.7889,-3.7895,-3.7898,-3.79,-3.7967,0,0,-3.7908,-3.7909,0,0,0,0,0,0,0,0,-3.7905,-3.7909,-3.7927,-3.7924,-3.7921,-3.7924,-3.7937,-3.7961,-3.7897,-3.7905,-3.7891,-3.7888,-3.7907,-3.7909,-3.7916,-3.7967,-3.7968,-3.7908,-3.791,-3.7911,-3.7912,0,0,0,0,0,0,0,-3.7904,-3.7908,-3.7954,-3.7927,-3.7924,-3.7908,-3.7908,-3.7941,-3.7921,-3.7905,-3.79,-3.7902,-3.7906,-3.7913,-3.7915,-3.7968,-3.7908,-3.7911,-3.7912,-3.7913,-3.8073,-3.8076,0,0,0,0,0,0,-3.7907,-3.7907,-3.7954,-3.7954,-3.7907,-3.7911,-3.7911,-3.7925,-3.792,-3.7917,-3.7904,-3.7899,-3.791,-3.7912,-3.7915,-3.7992,-3.7911,-3.7913,-3.7915,-3.807,-3.8074,-3.8077,0,0,0,0,0,0,-3.7905,-3.7911,-3.7954,-3.793,-3.7934,-3.7915,-3.7932,-3.7927,-3.7934,-3.792,-3.7915,-3.7915,-3.7908,-3.7911,-3.7954,-3.7991,-3.7915,-3.7917,-3.8067,-3.8071,-3.8075,-3.8147,0,0,0,0,0,0,-3.7904,-3.7911,-3.7937,-3.7931,-3.7935,-3.7994,-3.7934,-3.7929,-3.7939,-3.7933,-3.7929,-3.7926,-3.7906,-3.7951,-3.7957,-3.7994,-3.7919,-3.8064,-3.8069,-3.8074,-3.8142,-3.8153,-3.8163,0,0,0,0,0,-3.7902,-3.7958,-3.7939,-3.7945,-3.7967,-3.7996,-3.7999,-3.7975,-3.7942,-3.7968,-3.7958,-3.7926,-3.7987,-3.7956,-3.7962,-3.8,-3.8061,-3.8068,-3.8074,-3.8137,-3.8151,-3.8163,0,0,0,0,0,0,-3.7969,-3.7956,-3.7935,-3.7991,-3.7995,-3.7986,-3.8017,-3.7991,-3.8004,-3.7998,-3.7967,-3.7967,-3.8014,-3.8011,-3.7977,-3.8064,-3.8018,-3.8026,-3.8064,-3.8078,-3.8088,-3.8088,-3.7921,0,0,0,0,0,-3.799,-3.8015,-3.8002,-3.8052,-3.8056,-3.8036,-3.8048,-3.8029,-3.8032,-3.8033,-3.8026,-3.8031,-3.805,-3.8064,-3.8081,-3.8141,-3.8139,-3.817,-3.8181,-3.819,-3.8197,-3.8227,-3.824,-3.8097,-3.8096,-3.8096,0,0,-3.8035,-3.8031,-3.8048,-3.8066,-3.8067,-3.8092,-3.8038,-3.8068,-3.8086,-3.8038,-3.8077,-3.8073,-3.8075,-3.8126,-3.8149,-3.8125,-3.8236,-3.8198,-3.8205,-3.8207,-3.8235,-3.8248,-3.826,-3.8101,-3.81,-3.8099,0,0,-3.8128,-3.8128,-3.8169,-3.8171,-3.8173,-3.8159,-3.8169,-3.8164,-3.8158,-3.8198,-3.8161,-3.8183,-3.8218,-3.822,-3.8226,-3.832,-3.8291,-3.8326,-3.8383,-3.8413,-3.8424,-3.8434,-3.8467,-3.8479,-3.8333,-3.8333,-3.8333,0,-3.8183,-3.8221,-3.8194,-3.8225,-3.8234,-3.819,-3.8231,-3.8234,-3.8242,-3.8249,-3.8222,-3.8264,-3.8263,-3.8313,-3.8336,-3.8343,-3.8352,-3.8326,-3.8425,-3.8434,-3.8443,-3.8474,-3.8486,-3.8337,-3.8337,-3.8336,-3.8336,0,-3.8287,-3.8314,-3.8346,-3.8354,-3.8366,-3.8403,-3.8381,-3.8396,-3.8375,-3.8364,-3.8404,-3.8401,-3.8416,-3.8427,-3.8408,-3.8475,-3.846,-3.843,-3.8384,-3.8462,-3.849,-3.8501,-3.8343,-3.8342,-3.8341,-3.834,0,0,-3.8424,-3.8416,-3.8428,-3.843,-3.8429,-3.8449,-3.8482,-3.8497,-3.851,-3.8517,-3.8544,-3.8574,-3.8545,-3.8552,-3.8532,-3.8559,-3.8631,-3.8525,-3.8524,-3.8544,-3.8704,-3.8726,-3.874,-3.8612,-3.8615,-3.8616,-3.8703,0,-3.8514,-3.8572,-3.8548,-3.8607,-3.863,-3.8589,-3.8618,-3.862,-3.861,-3.8628,-3.8617,-3.8639,-3.86,-3.8604,-3.8628,-3.8618,-3.8663,-3.8611,-3.8637,-3.8638,-3.8637,-3.8755,-3.8779,-3.8862,-3.8714,-3.8716,-3.8718,0,-3.8628,-3.8638,-3.87,-3.8692,-3.8701,-3.8728,-3.8739,-3.8757,-3.8758,-3.8749,-3.8756,-3.873,-3.8762,-3.8716,-3.8759,-3.8724,-3.8733,-3.873,-3.8732,-3.8733,-3.8682,-3.8759,-3.8887,-3.89,-3.8735,-3.8733,-3.8732,0,-3.872,-3.875,-3.879,-3.8793,-3.8786,-3.8806,-3.8804,-3.8802,-3.8812,-3.8821,-3.8827,-3.884,-3.8848,-3.8858,-3.8836,-3.8805,-3.8882,-3.8835,-3.8875,-3.8876,-3.8893,-3.8892,-3.9024,-3.89,-3.89,-3.89,-3.89,0,-3.8823,-3.8863,-3.8831,-3.8856,-3.8898,-3.887,-3.8912,-3.8905,-3.8904,-3.8926,-3.8891,-3.8913,-3.8883,-3.8902,-3.8885,-3.8923,-3.8926,-3.892,-3.8915,-3.8922,-3.8923,-3.8928,-3.8921,-3.8903,-3.8902,-3.8902,-3.8901,0,-3.8934,-3.8915,-3.8956,-3.8945,-3.8943,-3.8975,-3.8965,-3.8987,-3.8975,-3.9003,-3.9008,-3.8989,-3.9009,-3.8988,-3.9007,-3.8995,-3.9046,-3.9033,-3.9046,-3.9042,-3.9083,-3.9079,-3.9222,-3.9239,-3.9105,-3.9106,-3.9107,0,-3.9001,-3.903,-3.9022,-3.9034,-3.9034,-3.9054,-3.9064,-3.9037,-3.9048,-3.905,-3.9072,-3.9089,-3.9101,-3.9135,-3.9122,-3.9136,-3.9122,-3.9172,-3.9124,-3.9131,-3.9122,-3.9121,-3.9123,-3.9181,-3.9183,-3.9184,-3.9185,0,-3.9121,-3.911,-3.9125,-3.9136,-3.9149,-3.9157,-3.9162,-3.9174,-3.9145,-3.916,-3.9179,-3.9189,-3.9207,-3.9224,-3.9234,-3.9232,-3.9204,-3.92,-3.921,-3.9218,-3.9224,-3.922,-3.9071,-3.9197,-3.9196,-3.9195,-3.9194,-3.9194,-3.9211,-3.9235,-3.9232,-3.925,-3.925,-3.9256,-3.9276,-3.9265,-3.9281,-3.9293,-3.9277,-3.9301,-3.93,-3.931,-3.9311,-3.9329,-3.9308,-3.9323,-3.9326,-3.933,-3.9336,-3.9222,-3.9331,-3.933,-3.933,-3.933,-3.9329,0,-3.9329,-3.9325,-3.9342,-3.9349,-3.9363,-3.9335,-3.9339,-3.9352,-3.9374,-3.9375,-3.9387,-3.9409,-3.9425,-3.9413,-3.9427,-3.9443,-3.9431,-3.9448,-3.9446,-3.9446,-3.9354,-3.9344,-3.9458,-3.9458,-3.9458,-3.9458,-3.9458,-3.9457,-3.9392,-3.9429,-3.9417,-3.9454,-3.945,-3.9473,-3.9477,-3.9482,-3.9482,-3.9508,-3.9521,-3.9513,-3.9509,-3.9522,-3.9535,-3.9531,-3.9537,-3.9559,-3.955,-3.9465,-3.9452,-3.944,-3.943,-3.956,-3.956,-3.964,-3.9641,-3.9641]}]]